ATLAS 5 CENTAUR DEB, 43984

Orbit data source: Space-Track

ATLAS 5 CENTAUR DEB, 43984 is space debris in HEO originally from a launch on Wed, 17 Sep 2014 UTC launched from the Air Force Eastern Test Range (AFETR). Debris objects in space refer to the collection of defunct objects orbiting the Earth. Examples of debris include non-operational satellites, rocket bodies, and fragments generated from explosions, collisions, or faulty payload assembly.

Loading next visibility...
Identifier
43984, 2014-055AP
Orbit
HEO
Last TLE update
3 days ago
Origin
Flag of USUnited Launch Alliance/Lockheed Martin (US)
Manufacturer
Unknown
Mission
Spacecraft
Bus & Motor
Unknown
Mass
Unknown
Launch date (UTC)
2014-09-17 (11 years ago)
Launch vehicle
Unknown
Launch site
Air Force Eastern Test Range (AFETR)
Object type
Payload
Rocket body
Debris
Shape & HBR
Unknown
Radar Cross Section
Small (<0.1 m²)

Expand to show TLE details & history

TLE from 3 days ago
0 ATLAS 5 CENTAUR DEB
1 43984U 14055AP  25179.47351484 -.00000049  00000-0  00000+0 0  9996
2 43984  20.6929 130.8238 5109549 185.8719 164.4910  1.91690257 47629
Epoch: 2025-06-28T11:21Z
TLE epoch observation values (Epoch: 2025-06-28T11:21:51.682Z)
Latitude
Longitude
43.50669°
Altitude
34,771.862 km
Speed
2.194 km/s
True Right ascension
08h 43m 08s
True Declination
0° 00' 00"
Sunlit
Object was in daylight at epoch
Visualization orbit readout
Latitude
-19.18479°
Longitude
-23.62847°
Altitude
17,033.589 km
Speed
4.415 km/s
Apparent Right ascension
05h 03m 43s
Apparent Declination
-27° 05' 15"
Sunlit
Object is in daylight
Visualization observer readout
Local Sidereal Time
21:58:50
Azimuth
102.51° ESE
Elevation
-28.876°
Doppler factor
1
Orbital elements
Apogee altitude
34,985.582 km
Perigee altitude
7,009.903 km
Semi-major axis
27,375.879 km
Eccentricity
0.51095
Inclination
20.6929°
RAAN
130.8238°
Arg. of periapsis
185.8719°
True anomaly
Unknown
Mean anomaly
164.491°
Eccentric anomaly
Unknown
Mean motion
0.47917 °/min
Orbital period
751.3 mins
BSTAR
0
Loading maneuver chart data...
Loading SW <> Apogee altitude chart data...
Loading historical data...
Loading historical data...
Loading historical data...
Loading historical data...
Loading historical data...
Loading historical data...
Loading historical data...

ATLAS 5 CENTAUR DEB Visibility forecast

Observer location: undefined°, undefined°

Span
Click to sort rows by Start time (UTC) header in descending order
Start Az.
Max El. time (UTC)
Max El. Az.
Max El.
End time (UTC)
End Az.
68 mins2025-07-02 08:55:24.242Z269.705° W2025-07-02 09:35:24.242Z216.797° SW22.582°2025-07-02 10:03:24.242Z161.671° S
|